Location: Newark
(55.7083°N, 13.1992°E)
Time: 07:23:59
(UTC+00:00)

N. Korean satellite - Pass Details

Date: 31 January 2020
Orbit: 456 x 505 km, 97.2° (Epoch: 20 February)

Event Time Altitude Azimuth Distance (km) Brightness Sun altitude
Rises 16:56:29 0° 204° (SSW) 2,472 10.8 -11.0°
Reaches altitude 10° 16:58:58 10° 223° (SW) 1,608 10.1 -11.3°
Maximum altitude 17:01:27 18° 269° (W) 1,192 9.7 -11.7°
Drops below altitude 10° 17:03:58 10° 316° (NW) 1,632 9.7 -12.0°
Sets 17:06:31 0° 335° (NNW) 2,524 10.4 -12.4°
